Location: Unspecified
(0.0000°N, 0.0000°E)
Time: 14:11:19
(UTC+00:00)

Envisat - Pass Details

Date: 28 November 2020
Orbit: 764 x 766 km, 98.1° (Epoch: 28 November)

Event Time Altitude Azimuth Distance (km) Brightness Sun altitude
Rises 18:13:31 0° 190° (S) 3,230 6.7 -5.9°
Reaches altitude 10° 18:16:10 10° 203° (SSW) 2,301 6.2 -6.5°
Maximum altitude 18:20:17 25° 258° (WSW) 1,495 5.6 -7.5°
Drops below altitude 10° 18:24:24 10° 312° (NW) 2,292 5.8 -8.4°
Sets 18:27:03 0° 325° (NW) 3,215 6.4 -9.0°
